Location: Monteux
(44.0348°N, 4.9972°E)
Time: 04:24:47
(UTC+00:00)

Cosmos 2341 Rocket - Pass Details

Date: 28 April 2021
Orbit: 969 x 1003 km, 82.9° (Epoch: 11 May)

Event Time Altitude Azimuth Distance (km) Brightness Sun altitude
Rises 00:00:11 0° 350° (N) 3,726 8.1 -31.6°
Reaches altitude 10° 00:02:43 10° 349° (N) 2,777 7.2 -31.5°
Enters shadow 00:08:33 72° 311° (NW) 1,055 4.1 -31.4°
